Regional Weather Roundup
Issued by NWS Green Bay, WI

Home | Current Version | Previous Version | Graphics & Text | Print | Product List | Glossary Off
Versions: 1 2 3 4 5 6 7 8 9 10 11 12 13 14 15 16 17 18 19 20 21 22 23 24 25 26 27 28 29 30 31 32 33 34 35 36 37 38 39 40 41 42 43 44 45 46 47 48 49 50

000
ASUS43 KGRB 131800
RWRGRB

NORTH-CENTRAL AND NORTHEAST WISCONSIN REGIONAL WEATHER ROUNDUP
NATIONAL WEATHER SERVICE GREEN BAY WI
1200 PM CST SAT FEB 13 2016

WIZ005-009-010>012-018-019-131900-
NORTH CENTRAL WISCONSIN

CITY           SKY/WX    TMP DP  RH WIND       PRES   REMARKS
IRONWOOD       CLOUDY     1  -2  85 W9        30.47F WCI -14
MANITOWISH WTR NOT AVBL
ARBOR VITAE    NOT AVBL
EAGLE RIVER    NOT AVBL
LAND O LAKES   NOT AVBL
RHINELANDER    SUNNY      4  -7  60 VRB7      30.44F WCI  -8
PHILLIPS       NOT AVBL
ANTIGO         NOT AVBL
TOMAHAWK       NOT AVBL
MERRILL        NOT AVBL
$$

WIZ013-073-131900-
NORTHEAST WISCONSIN

CITY           SKY/WX    TMP DP  RH WIND       PRES   REMARKS
IRON MOUNTAIN  SUNNY      8  -7  50 N16G22    30.43F WCI -10
MARINETTE      SUNNY      9  -8  47 N7        30.50F WCI  -3
$$

WIZ017-030-035>037-045-131900-
CENTRAL WISCONSIN

CITY           SKY/WX    TMP DP  RH WIND       PRES   REMARKS
MEDFORD        NOT AVBL
WAUSAU         SUNNY      4  -9  55 NW7       30.50F WCI  -8
MOSINEE        SUNNY      1  -9  60 NW9       30.52F WCI -14
MARSHFIELD     SUNNY      1 -12  54 W8        30.51F WCI -13
WISC RAPIDS    SUNNY      5 -11  47 N7        30.55F WCI  -7
STEVENS POINT  NOT AVBL
WAUPACA        NOT AVBL
SHAWANO        NOT AVBL
CLINTONVILLE   NOT AVBL
WAUTOMA        NOT AVBL
$$

WIZ038-039-048-051-131900-
FOX VALLEY

CITY           SKY/WX    TMP DP  RH WIND       PRES   REMARKS
NWS GREEN BAY  SUNNY      6  -7  54 NW13      30.53F WCI -10
APPLETON       MOSUNNY    7 -11  43 W6        30.52F WCI  -3
OSHKOSH        SUNNY      5  -7  57 W8        30.55F WCI  -8
FOND DU LAC    SUNNY      6  -7  54 NW8       30.56F WCI  -7
$$

WIZ022-050-052-131900-
EAST CENTRAL WISCONSIN

CITY           SKY/WX    TMP DP  RH WIND       PRES   REMARKS
EPHRAIM        NOT AVBL
STURGEON BAY   SUNNY      7  -6  56 NW14      30.51F WCI -10
MANITOWOC      NOT AVBL
SHEBOYGAN      SUNNY      6  -7  54 NW10      30.54F WCI  -9
$$

LMZ563-521-522-541>543-131900-
LAKESHORE

STATION/POSITION TIME  TEMP    WIND        PRES    VSBY  WAVE
                       AIR SEA DIR/SP/G                  HT/PER
                 (UTC) (F)     (DEG/KT/KT) (MB)    (MI)  (FT/S)
SHEBOYGAN LKSHOR 1700    4     300/ 15/ 17 1036.8S
KEWAUNEE LKSHORE 1700    4     310/ 15/ 20 1032.7S
ALGOMA MARINA    1711          320/ 12/ 18   N/A
CHAMBERS ISLAND  1700    9     300/ 12/ 18 1032.8R
MENOMINEE LKSHOR 1700    6     320/ 17     1032.0F
$$



USA.gov is the U.S. government's official web portal to all federal, state and local government web resources and services.